AFR52ZP LFKB-LFPG

Flight info

Callsign AFR52ZP
Flight time 1h 28m
Altitude 18000
Route MEGER Z911 OLETI M858 OTMUV/N0392F190 Z388 IXITO/N0453F360 DCT LAGEN DCT AOSTA DCT ORSUD DCT MOLUS DCT UNKIR DCT GIVRI DCT TINIL
Aircraft A320/M-SDE3FGHIRWY/LB1

Departure

Time 2026-05-08 19:11
Airport Bastia-Poretta International airport (LFKB)

Arrival

Time 2026-05-08 20:39
Airport Charles de Gaulle International Airport (LFPG)
Time Latitude Longitude Altitude Speed Heading
2026-05-08 18:42 42.54728 9.48205 36 ft 0 kts 253°
2026-05-08 19:01 42.54728 9.48207 35 ft 2 kts 253°
2026-05-08 19:02 42.54736 9.48240 34 ft 4 kts 252°
2026-05-08 19:02 42.54746 9.48274 35 ft 4 kts 236°
2026-05-08 19:02 42.54763 9.48298 34 ft 4 kts 197°
2026-05-08 19:02 42.54780 9.48299 34 ft 1 kts 163°
2026-05-08 19:03 42.54783 9.48298 34 ft 0 kts 163°
2026-05-08 19:07 42.54775 9.48301 33 ft 4 kts 162°
2026-05-08 19:07 42.54712 9.48329 35 ft 12 kts 162°
2026-05-08 19:07 42.54635 9.48361 35 ft 11 kts 162°
2026-05-08 19:08 42.54568 9.48389 35 ft 10 kts 163°
2026-05-08 19:08 42.54484 9.48421 35 ft 13 kts 173°
2026-05-08 19:08 42.54399 9.48417 35 ft 12 kts 171°
2026-05-08 19:08 42.54300 9.48458 35 ft 15 kts 162°
2026-05-08 19:09 42.54205 9.48498 35 ft 14 kts 162°
2026-05-08 19:09 42.54139 9.48573 34 ft 11 kts 122°
2026-05-08 19:09 42.54129 9.48669 35 ft 10 kts 81°
2026-05-08 19:09 42.54157 9.48744 35 ft 8 kts 49°
2026-05-08 19:10 42.54194 9.48798 35 ft 8 kts 43°
2026-05-08 19:10 42.54298 9.48782 35 ft 36 kts 343°
2026-05-08 19:10 42.54784 9.48575 34 ft 107 kts 342°
2026-05-08 19:10 42.55675 9.48205 52 ft 158 kts 343°
2026-05-08 19:11 42.56763 9.47772 580 ft 166 kts 345°
2026-05-08 19:11 42.57901 9.47438 1269 ft 168 kts 353°
2026-05-08 19:11 42.59062 9.47307 1964 ft 169 kts 359°
2026-05-08 19:11 42.60305 9.47358 2273 ft 190 kts
2026-05-08 19:12 42.61687 9.47663 2531 ft 214 kts 14°
2026-05-08 19:12 42.63187 9.48290 2903 ft 238 kts 21°
2026-05-08 19:12 42.64804 9.49126 3408 ft 256 kts 21°
2026-05-08 19:12 42.66494 9.49998 4205 ft 263 kts 21°
2026-05-08 19:13 42.68218 9.50888 5060 ft 267 kts 21°
2026-05-08 19:13 42.69971 9.51791 5910 ft 272 kts 20°
2026-05-08 19:13 42.71754 9.52700 6727 ft 276 kts 18°
2026-05-08 19:13 42.73615 9.53406 7540 ft 279 kts 14°
2026-05-08 19:14 42.75498 9.54093 8385 ft 282 kts 15°
2026-05-08 19:14 42.77400 9.54795 9226 ft 284 kts 15°
2026-05-08 19:14 42.79317 9.55508 10052 ft 287 kts 15°
2026-05-08 19:14 42.81288 9.56240 10512 ft 304 kts 15°
2026-05-08 19:15 42.83404 9.57026 10729 ft 327 kts 15°
2026-05-08 19:15 42.85674 9.57862 10936 ft 348 kts 15°
2026-05-08 19:15 42.88043 9.58737 11474 ft 356 kts 15°
2026-05-08 19:15 42.90450 9.59630 12125 ft 361 kts 15°
2026-05-08 19:16 42.92890 9.60526 12776 ft 365 kts 13°
2026-05-08 19:16 42.95423 9.60841 13427 ft 369 kts 355°
2026-05-08 19:16 42.97919 9.60023 14044 ft 372 kts 335°
2026-05-08 19:16 43.00076 9.58099 14627 ft 373 kts 315°
2026-05-08 19:17 43.01642 9.55292 15222 ft 374 kts 297°
2026-05-08 19:17 43.02774 9.52076 15844 ft 376 kts 294°
2026-05-08 19:17 43.03890 9.48836 16474 ft 378 kts 294°
2026-05-08 19:17 43.05015 9.45568 17030 ft 381 kts 294°
2026-05-08 19:18 43.06150 9.42281 17598 ft 384 kts 295°
2026-05-08 19:18 43.07298 9.38968 18173 ft 387 kts 295°
2026-05-08 19:18 43.08451 9.35634 18678 ft 389 kts 294°
2026-05-08 19:18 43.09611 9.32276 19175 ft 391 kts 294°
2026-05-08 19:19 43.10774 9.28905 19667 ft 393 kts 294°
2026-05-08 19:19 43.11943 9.25511 20156 ft 395 kts 294°
2026-05-08 19:19 43.13119 9.22098 20630 ft 397 kts 294°
2026-05-08 19:19 43.14299 9.18671 21107 ft 399 kts 294°
2026-05-08 19:20 43.15470 9.15264 21568 ft 401 kts 294°
2026-05-08 19:20 43.15869 9.14099 21726 ft 402 kts 294°
2026-05-08 19:20 43.17854 9.08306 22484 ft 406 kts 294°
2026-05-08 19:20 43.19059 9.04796 22913 ft 408 kts 294°
2026-05-08 19:21 43.20265 9.01263 23331 ft 411 kts 294°
2026-05-08 19:21 43.21476 8.97703 23736 ft 413 kts 293°
2026-05-08 19:21 43.22677 8.94119 24078 ft 415 kts 291°
2026-05-08 19:21 43.23669 8.90400 24418 ft 416 kts 288°
2026-05-08 19:22 43.24638 8.86656 24767 ft 418 kts 288°
2026-05-08 19:22 43.25611 8.82891 25107 ft 419 kts 288°
2026-05-08 19:22 43.26589 8.79112 25447 ft 421 kts 288°
2026-05-08 19:22 43.27568 8.75320 25787 ft 423 kts 288°
2026-05-08 19:23 43.28552 8.71499 26115 ft 425 kts 288°
2026-05-08 19:23 43.29537 8.67668 26423 ft 427 kts 288°
2026-05-08 19:23 43.30530 8.63808 26744 ft 429 kts 288°
2026-05-08 19:23 43.31523 8.59934 27023 ft 432 kts 288°
2026-05-08 19:24 43.32522 8.56036 27310 ft 434 kts 288°
2026-05-08 19:24 43.33523 8.52122 27599 ft 436 kts 288°
2026-05-08 19:24 43.34529 8.48191 27882 ft 437 kts 288°
2026-05-08 19:24 43.35541 8.44237 28162 ft 439 kts 287°
2026-05-08 19:25 43.36553 8.40273 28457 ft 441 kts 287°
2026-05-08 19:25 43.37567 8.36294 28740 ft 442 kts 287°
2026-05-08 19:25 43.38580 8.32313 29132 ft 441 kts 287°
2026-05-08 19:25 43.39588 8.28336 29535 ft 440 kts 287°
2026-05-08 19:26 43.40591 8.24370 29941 ft 439 kts 287°
2026-05-08 19:26 43.41590 8.20412 30307 ft 438 kts 287°
2026-05-08 19:26 43.42587 8.16464 30637 ft 437 kts 287°
2026-05-08 19:26 43.43581 8.12523 30962 ft 436 kts 287°
2026-05-08 19:27 43.44570 8.08583 31281 ft 435 kts 287°
2026-05-08 19:27 43.45557 8.04647 31609 ft 435 kts 287°
2026-05-08 19:27 43.46540 8.00716 31920 ft 434 kts 287°
2026-05-08 19:27 43.47520 7.96790 32241 ft 434 kts 287°
2026-05-08 19:28 43.48500 7.92858 32516 ft 434 kts 287°
2026-05-08 19:28 43.49482 7.88923 32802 ft 434 kts 287°
2026-05-08 19:28 43.50463 7.84989 33103 ft 434 kts 287°
2026-05-08 19:28 43.51439 7.81052 33429 ft 434 kts 287°
2026-05-08 19:29 43.52412 7.77125 33723 ft 434 kts 287°
2026-05-08 19:29 43.53373 7.73243 34018 ft 433 kts 287°
2026-05-08 19:29 43.54345 7.69316 34288 ft 433 kts 287°
2026-05-08 19:29 43.55314 7.65390 34578 ft 432 kts 287°
2026-05-08 19:30 43.56278 7.61475 34869 ft 430 kts 287°
2026-05-08 19:30 43.57234 7.57575 35161 ft 429 kts 286°
2026-05-08 19:30 43.58192 7.53672 35411 ft 429 kts 286°
2026-05-08 19:30 43.59142 7.49787 35705 ft 427 kts 286°
2026-05-08 19:31 43.60091 7.45907 35966 ft 426 kts 286°
2026-05-08 19:31 43.62626 7.38500 36062 ft 434 kts 303°
2026-05-08 19:31 43.64632 7.35363 36059 ft 439 kts 314°
2026-05-08 19:32 43.67032 7.32736 36053 ft 444 kts 323°
2026-05-08 19:32 43.72204 7.28049 36056 ft 445 kts 322°
2026-05-08 19:33 43.77349 7.23307 36056 ft 444 kts 322°
2026-05-08 19:33 43.82493 7.18555 36063 ft 444 kts 322°
2026-05-08 19:34 43.87639 7.13816 36077 ft 444 kts 322°
2026-05-08 19:34 43.92781 7.09072 36085 ft 444 kts 322°
2026-05-08 19:35 43.97919 7.04328 36085 ft 443 kts 322°
2026-05-08 19:35 44.02181 7.00376 36099 ft 443 kts 322°
2026-05-08 19:36 44.07303 6.95619 36091 ft 442 kts 322°
2026-05-08 19:36 44.12414 6.90873 36095 ft 442 kts 322°
2026-05-08 19:37 44.17516 6.86106 36089 ft 442 kts 322°
2026-05-08 19:37 44.22615 6.81324 36097 ft 442 kts 322°
2026-05-08 19:38 44.27720 6.76534 36094 ft 442 kts 322°
2026-05-08 19:38 44.32829 6.71731 36091 ft 443 kts 322°
2026-05-08 19:39 44.37943 6.66934 36082 ft 443 kts 322°
2026-05-08 19:39 44.43048 6.62115 36098 ft 443 kts 322°
2026-05-08 19:40 44.48145 6.57283 36103 ft 442 kts 322°
2026-05-08 19:40 44.53246 6.52452 36099 ft 442 kts 322°
2026-05-08 19:41 44.58340 6.47626 36100 ft 442 kts 322°
2026-05-08 19:41 44.63434 6.42798 36093 ft 442 kts 322°
2026-05-08 19:42 44.68521 6.37945 36083 ft 442 kts 322°
2026-05-08 19:42 44.73615 6.33080 36075 ft 443 kts 322°
2026-05-08 19:43 44.78676 6.28234 36075 ft 443 kts 322°
2026-05-08 19:43 44.83771 6.23355 36081 ft 443 kts 322°
2026-05-08 19:44 44.88860 6.18464 36075 ft 443 kts 321°
2026-05-08 19:44 44.93943 6.13566 36074 ft 443 kts 321°
2026-05-08 19:45 44.99023 6.08660 36070 ft 443 kts 322°
2026-05-08 19:45 45.04118 6.03726 36078 ft 444 kts 321°
2026-05-08 19:46 45.09210 5.98798 36080 ft 443 kts 322°
2026-05-08 19:46 45.16833 5.91389 36074 ft 443 kts 321°
2026-05-08 19:47 45.21912 5.86433 36068 ft 443 kts 321°
2026-05-08 19:47 45.26979 5.81479 36075 ft 442 kts 321°
2026-05-08 19:48 45.32046 5.76521 36059 ft 442 kts 321°
2026-05-08 19:48 45.37115 5.71547 36050 ft 443 kts 321°
2026-05-08 19:49 45.42185 5.66561 36042 ft 444 kts 321°
2026-05-08 19:49 45.47262 5.61561 36064 ft 443 kts 321°
2026-05-08 19:50 45.52326 5.56557 36064 ft 443 kts 321°
2026-05-08 19:50 45.57564 5.51918 36060 ft 447 kts 332°
2026-05-08 19:51 45.63259 5.48326 36055 ft 447 kts 332°
2026-05-08 19:51 45.68956 5.44735 36051 ft 448 kts 332°
2026-05-08 19:52 45.74652 5.41121 36043 ft 448 kts 332°
2026-05-08 19:52 45.80346 5.37501 36041 ft 448 kts 332°
2026-05-08 19:53 45.86041 5.33874 36052 ft 448 kts 332°
2026-05-08 19:53 45.91720 5.30249 36050 ft 446 kts 332°
2026-05-08 19:54 45.97383 5.26627 36042 ft 445 kts 332°
2026-05-08 19:54 46.03031 5.22999 36030 ft 444 kts 332°
2026-05-08 19:55 46.08680 5.19377 36035 ft 444 kts 332°
2026-05-08 19:55 46.14275 5.15775 36021 ft 443 kts 332°
2026-05-08 19:56 46.19907 5.12133 36006 ft 444 kts 332°
2026-05-08 19:56 46.25844 5.09545 35999 ft 452 kts 348°
2026-05-08 19:57 46.32169 5.09322 36006 ft 456 kts 356°
2026-05-08 19:57 46.38493 5.09093 36003 ft 450 kts 345°
2026-05-08 19:58 46.41461 5.07807 35999 ft 443 kts 333°
2026-05-08 19:58 46.44306 5.06100 35992 ft 443 kts 333°
2026-05-08 19:58 46.49988 5.02646 36009 ft 443 kts 333°
2026-05-08 19:59 46.55661 4.99172 36014 ft 442 kts 333°
2026-05-08 19:59 46.61324 4.95708 36016 ft 442 kts 333°
2026-05-08 20:00 46.66994 4.92247 36014 ft 442 kts 333°
2026-05-08 20:00 46.72658 4.88785 36019 ft 441 kts 333°
2026-05-08 20:01 46.78323 4.85303 36007 ft 442 kts 333°
2026-05-08 20:01 46.83995 4.81803 35997 ft 443 kts 333°
2026-05-08 20:02 46.89673 4.78279 36029 ft 443 kts 333°
2026-05-08 20:02 46.95348 4.74762 36039 ft 442 kts 333°
2026-05-08 20:03 47.01012 4.71250 36035 ft 442 kts 333°
2026-05-08 20:03 47.06672 4.67736 36040 ft 441 kts 333°
2026-05-08 20:04 47.12318 4.64217 36059 ft 440 kts 333°
2026-05-08 20:04 47.17953 4.60695 36027 ft 440 kts 333°
2026-05-08 20:05 47.23596 4.57162 36024 ft 441 kts 333°
2026-05-08 20:05 47.29255 4.53617 36010 ft 442 kts 333°
2026-05-08 20:06 47.34918 4.50057 36034 ft 442 kts 333°
2026-05-08 20:06 47.40577 4.46491 36037 ft 442 kts 333°
2026-05-08 20:07 47.46197 4.42938 36039 ft 442 kts 333°
2026-05-08 20:07 47.51888 4.39332 36063 ft 442 kts 333°
2026-05-08 20:08 47.57486 4.35771 36067 ft 440 kts 333°
2026-05-08 20:08 47.63110 4.32188 36058 ft 439 kts 333°
2026-05-08 20:09 47.68719 4.28609 36060 ft 439 kts 333°
2026-05-08 20:09 47.74318 4.25017 36070 ft 438 kts 333°
2026-05-08 20:10 47.79911 4.21439 36067 ft 437 kts 333°
2026-05-08 20:10 47.85499 4.17847 36050 ft 437 kts 333°
2026-05-08 20:11 47.88292 4.16045 35861 ft 440 kts 333°
2026-05-08 20:11 47.91131 4.14210 34866 ft 448 kts 333°
2026-05-08 20:11 47.93959 4.12389 34134 ft 438 kts 333°
2026-05-08 20:11 47.96738 4.10604 33030 ft 432 kts 334°
2026-05-08 20:12 47.99485 4.08835 31768 ft 429 kts 334°
2026-05-08 20:12 48.02219 4.07065 30434 ft 429 kts 334°
2026-05-08 20:12 48.04948 4.05296 29128 ft 425 kts 334°
2026-05-08 20:12 48.07638 4.03552 27921 ft 418 kts 334°
2026-05-08 20:13 48.10287 4.01830 26788 ft 412 kts 334°
2026-05-08 20:13 48.12891 4.00135 25712 ft 405 kts 335°
2026-05-08 20:13 48.15455 3.98465 24669 ft 399 kts 335°
2026-05-08 20:13 48.17978 3.96817 23706 ft 392 kts 335°
2026-05-08 20:14 48.20459 3.95195 22598 ft 386 kts 334°
2026-05-08 20:14 48.22866 3.93626 22195 ft 365 kts 334°
2026-05-08 20:14 48.25133 3.92150 21812 ft 347 kts 334°
2026-05-08 20:14 48.27302 3.90733 21397 ft 334 kts 334°
2026-05-08 20:15 48.29439 3.89330 21002 ft 336 kts 333°
2026-05-08 20:15 48.31580 3.87923 20581 ft 335 kts 333°
2026-05-08 20:15 48.33713 3.86519 20167 ft 334 kts 333°
2026-05-08 20:15 48.35850 3.85107 19747 ft 344 kts 333°
2026-05-08 20:16 48.38082 3.83627 19300 ft 354 kts 334°
2026-05-08 20:16 48.40341 3.82133 18830 ft 355 kts 333°
2026-05-08 20:16 48.42606 3.80642 18370 ft 355 kts 333°
2026-05-08 20:16 48.44868 3.79156 17857 ft 354 kts 334°
2026-05-08 20:17 48.47122 3.77673 17399 ft 353 kts 334°
2026-05-08 20:17 48.49337 3.76218 16953 ft 351 kts 334°
2026-05-08 20:17 48.51551 3.74691 16503 ft 349 kts 328°
2026-05-08 20:17 48.53535 3.72645 16052 ft 344 kts 317°
2026-05-08 20:18 48.55117 3.69989 15762 ft 339 kts 302°
2026-05-08 20:18 48.56435 3.67034 15508 ft 339 kts 302°
2026-05-08 20:18 48.57744 3.64077 15255 ft 339 kts 302°
2026-05-08 20:18 48.59048 3.61116 15079 ft 338 kts 302°
2026-05-08 20:19 48.60345 3.58158 15070 ft 339 kts 302°
2026-05-08 20:19 48.61645 3.55183 15073 ft 340 kts 302°
2026-05-08 20:19 48.62934 3.52189 15073 ft 340 kts 301°
2026-05-08 20:19 48.64215 3.49187 15073 ft 340 kts 301°
2026-05-08 20:20 48.65495 3.46179 15073 ft 340 kts 301°
2026-05-08 20:20 48.66774 3.43167 15070 ft 341 kts 301°
2026-05-08 20:20 48.68057 3.40154 15070 ft 341 kts 301°
2026-05-08 20:20 48.69187 3.37015 15079 ft 340 kts 296°
2026-05-08 20:21 48.70488 3.34025 15079 ft 341 kts 305°
2026-05-08 20:21 48.71899 3.31136 15079 ft 341 kts 305°
2026-05-08 20:21 48.73301 3.28242 15076 ft 341 kts 304°
2026-05-08 20:21 48.74703 3.25341 15076 ft 341 kts 304°
2026-05-08 20:22 48.75632 3.23422 15076 ft 341 kts 305°
2026-05-08 20:22 48.77036 3.20526 15076 ft 341 kts 305°
2026-05-08 20:22 48.78443 3.17629 15079 ft 341 kts 305°
2026-05-08 20:22 48.79849 3.14735 15079 ft 341 kts 305°
2026-05-08 20:23 48.81254 3.11842 15078 ft 341 kts 305°
2026-05-08 20:23 48.82660 3.08943 15076 ft 341 kts 305°
2026-05-08 20:23 48.84065 3.06044 15076 ft 341 kts 305°
2026-05-08 20:23 48.85467 3.03153 14912 ft 338 kts 305°
2026-05-08 20:24 48.86856 3.00285 14466 ft 337 kts 305°
2026-05-08 20:24 48.88240 2.97423 14027 ft 335 kts 305°
2026-05-08 20:24 48.89616 2.94576 13578 ft 334 kts 305°
2026-05-08 20:24 48.90984 2.91740 13158 ft 332 kts 304°
2026-05-08 20:25 48.92248 2.88815 13066 ft 330 kts 296°
2026-05-08 20:25 48.93095 2.85586 13079 ft 330 kts 284°
2026-05-08 20:25 48.93478 2.82155 13082 ft 329 kts 272°
2026-05-08 20:25 48.93402 2.78693 13083 ft 328 kts 264°
2026-05-08 20:26 48.93213 2.75235 13083 ft 328 kts 265°
2026-05-08 20:26 48.93030 2.71775 13083 ft 328 kts 265°
2026-05-08 20:26 48.92847 2.68328 12877 ft 325 kts 265°
2026-05-08 20:26 48.92669 2.64947 12704 ft 314 kts 265°
2026-05-08 20:27 48.92499 2.61739 12572 ft 294 kts 265°
2026-05-08 20:27 48.92339 2.58735 12441 ft 276 kts 265°
2026-05-08 20:27 48.92185 2.55911 12297 ft 260 kts 265°
2026-05-08 20:27 48.92037 2.53208 11951 ft 253 kts 264°
2026-05-08 20:28 48.91891 2.50556 11534 ft 252 kts 264°
2026-05-08 20:28 48.91747 2.47913 11273 ft 250 kts 264°
2026-05-08 20:28 48.91603 2.45290 10996 ft 248 kts 264°
2026-05-08 20:28 48.91457 2.42685 10717 ft 247 kts 264°
2026-05-08 20:29 48.91314 2.40094 10433 ft 245 kts 264°
2026-05-08 20:29 48.91170 2.37512 10092 ft 246 kts 264°
2026-05-08 20:29 48.91023 2.34941 9653 ft 243 kts 264°
2026-05-08 20:29 48.90877 2.32391 9203 ft 242 kts 264°
2026-05-08 20:30 48.90732 2.29851 8757 ft 241 kts 264°
2026-05-08 20:30 48.90584 2.27320 8317 ft 240 kts 264°
2026-05-08 20:30 48.90437 2.24798 7882 ft 239 kts 264°
2026-05-08 20:30 48.90291 2.22278 7459 ft 240 kts 264°
2026-05-08 20:31 48.90147 2.19739 7036 ft 243 kts 264°
2026-05-08 20:31 48.90003 2.17205 6774 ft 238 kts 264°
2026-05-08 20:31 48.89862 2.14707 6465 ft 236 kts 264°
2026-05-08 20:31 48.89798 2.12217 6128 ft 236 kts 278°
2026-05-08 20:32 48.90470 2.09989 6072 ft 238 kts 310°
2026-05-08 20:32 48.91823 2.08579 5768 ft 240 kts 342°
2026-05-08 20:32 48.93470 2.08442 5383 ft 239 kts 13°
2026-05-08 20:32 48.94989 2.09383 5068 ft 235 kts 36°
2026-05-08 20:33 48.96134 2.11076 4999 ft 227 kts 57°
2026-05-08 20:33 48.96801 2.13217 5005 ft 224 kts 77°
2026-05-08 20:33 48.97007 2.15549 5009 ft 221 kts 86°
2026-05-08 20:33 48.97140 2.17890 5008 ft 222 kts 86°
2026-05-08 20:34 48.97273 2.20216 4957 ft 218 kts 85°
2026-05-08 20:34 48.97403 2.22490 4748 ft 213 kts 86°
2026-05-08 20:34 48.97652 2.26876 4182 ft 204 kts 86°
2026-05-08 20:35 48.97769 2.28962 3922 ft 197 kts 85°
2026-05-08 20:35 48.97884 2.31000 3661 ft 190 kts 86°
2026-05-08 20:35 48.97995 2.32977 3415 ft 185 kts 85°
2026-05-08 20:35 48.98105 2.34944 3165 ft 182 kts 86°
2026-05-08 20:36 48.98210 2.36831 2920 ft 181 kts 85°
2026-05-08 20:36 48.98317 2.38753 2678 ft 179 kts 85°
2026-05-08 20:36 48.98419 2.40608 2443 ft 176 kts 85°
2026-05-08 20:36 48.98520 2.42439 2200 ft 172 kts 85°
2026-05-08 20:37 48.98619 2.44225 1995 ft 165 kts 85°
2026-05-08 20:37 48.98709 2.45876 1777 ft 147 kts 84°
2026-05-08 20:37 48.98791 2.47366 1579 ft 138 kts 85°
2026-05-08 20:37 48.98869 2.48798 1395 ft 136 kts 84°
2026-05-08 20:38 48.98946 2.50210 1213 ft 133 kts 84°
2026-05-08 20:38 48.99016 2.51632 1021 ft 135 kts 85°
2026-05-08 20:38 48.99093 2.53056 851 ft 135 kts 83°
2026-05-08 20:38 48.99180 2.54472 660 ft 134 kts 84°
2026-05-08 20:39 48.99255 2.55887 483 ft 134 kts 83°
2026-05-08 20:39 48.99332 2.57286 355 ft 125 kts 84°
2026-05-08 20:39 48.99388 2.58359 353 ft 77 kts 85°
2026-05-08 20:39 48.99420 2.58966 352 ft 34 kts 85°
2026-05-08 20:40 48.99478 2.59288 358 ft 30 kts 65°
2026-05-08 20:40 48.99553 2.59540 359 ft 17 kts 65°
2026-05-08 20:40 48.99618 2.59687 361 ft 16 kts 19°
2026-05-08 20:40 48.99738 2.59684 354 ft 18 kts 355°
2026-05-08 20:41 48.99865 2.59667 354 ft 17 kts 355°
2026-05-08 20:41 48.99924 2.59660 362 ft 0 kts 355°
2026-05-08 20:42 48.99941 2.59657 356 ft 9 kts 355°
2026-05-08 20:42 49.00045 2.59645 357 ft 18 kts 355°
2026-05-08 20:42 49.00176 2.59629 361 ft 20 kts 355°
2026-05-08 20:42 49.00319 2.59612 357 ft 21 kts 355°
2026-05-08 20:43 49.00473 2.59593 356 ft 23 kts 355°
2026-05-08 20:43 49.00637 2.59572 354 ft 24 kts 355°
2026-05-08 20:43 49.00802 2.59551 357 ft 23 kts 355°
2026-05-08 20:43 49.00938 2.59534 356 ft 16 kts 355°
2026-05-08 20:44 49.01001 2.59418 360 ft 18 kts 267°
2026-05-08 20:44 49.00991 2.59222 354 ft 19 kts 265°
2026-05-08 20:44 49.00974 2.59038 358 ft 16 kts 252°
2026-05-08 20:44 49.00949 2.58881 360 ft 14 kts 263°
2026-05-08 20:45 49.00941 2.58733 354 ft 13 kts 266°
2026-05-08 20:45 49.00937 2.58643 357 ft 12 kts 266°
2026-05-08 20:45 49.00927 2.58466 359 ft 15 kts 265°
2026-05-08 20:45 49.00919 2.58296 354 ft 16 kts 266°
2026-05-08 20:46 49.00904 2.58143 356 ft 14 kts 240°
2026-05-08 20:46 49.00831 2.58090 356 ft 8 kts 214°
2026-05-08 20:46 49.00814 2.58027 361 ft 4 kts 263°
2026-05-08 20:46 49.00813 2.58026 361 ft 0 kts 263°
2026-05-08 20:48 49.00810 2.57979 361 ft 5 kts 263°
2026-05-08 20:48 49.00802 2.57930 358 ft 4 kts 237°
2026-05-08 20:49 49.00764 2.57917 354 ft 5 kts 183°
2026-05-08 20:49 49.00743 2.57914 354 ft 1 kts 183°